Tracking 19796 objects as of 19-Jul-2019
HD Live streaming from Space Station
objects crossing your sky now

GOES 2

Track GOES 2 now!
GOES 2 is classified as:


NORAD ID: 10061
Int'l Code: 1977-048A
Perigee: 35,973.6 km
Apogee: 36,105.1 km
Inclination: 12.1 °
Period: 1,448.7 minutes
Semi major axis: 42410 km
RCS: 2.5118 m2 (large)
Launch date: June 16, 1977
Source: United States (US)
Launch site: AIR FORCE EASTERN TEST RANGE (AFETR)
aabbcc
Your satellite tracking list
Your tracking list is empty




NASA's NSSDC Master Catalog

Two Line Element Set (TLE):
1 10061U 77048A   19199.56934816 -.00000157  00000-0  00000+0 0  9998
2 10061  12.0521 318.9086 0015503 350.2447   7.7793  0.99401864 98411
Source of the keplerian elements: AFSPC